Aktualny czas
EPWA METAR
  • EPWA 281130Z 04008KT 010V070 9999 BKN007 06/05 Q1009 NOSIG
Statystyki
  • 46Piloci
  • 6455Wykonane loty*
  • 24865:43:00Wylatane godziny*
  • 0Loty w dniu dzisiejszym
  • *łącznie z przeniesionymi z poprzedniego systemu
O nas

Polskie Linie Lotnicze LOT Virtual stanowią ekwiwalent Polskich Linii Lotniczych LOT w wirtualnej przestrzeni powietrznej VATSIM. Linia należy do wirtualnego sojuszu Star Alliance zrzeszającego ponad 20 wirtualnych linii lotniczych z całego świata. Dokładamy wszelkich starań, aby wirtualni piloci mogli poczuć, choć namiastkę prawdziwej pracy pilota samolotów pasażerskich. Nasza kadra szkoleniowa składa się z doświadczonych pilotów, którzy posiadają w swoim doświadczeniu lotniczym nie tylko mnóstwo wylatanych godzin, ale także wiele oblatanych typów statków powietrznych. Materiały szkoleniowe stosowane podczas prowadzonych kursów Type Rating są opracowywane na podstawie doświadczeń i konsultacji z prawdziwymi pilotami latającymi samolotami pasażerskimi na całym świecie.


logo



Ostatnie loty
Pilot Flight Number Departure Arrival Status Altitude Speed Distance/Time Remain
Airline Flight Departure Arrival Duration Pilot Landing Aircraft
LOT 526 LKPR EPWA 01.01 LOT0007 -1736 ERJ 170-200
LOT 521 EPWA LKPR 00.54 LOT0010 -280 ERJ 170-200
LOT 226 LOWW EPWA 1.00 LOT0003 0 737-400
LOT 225 EPWA LOWW 1.00 LOT0003 0 737-400
LOT 152 LLBG EPWA 03.35 LOT0005 -124 737-400
Airline Flight Departure Arrival Aircraft
No Flights in Progress!